Вернуться в каталог

CUBEL

АктивенНаукаSSO
NORAD 47448·PAYLOAD·🇩🇪 Germany

Запущен Jan 24, 2021 с Cape Canaveral Space Force Station

Loading…

Ближайшие Пролёты (ближайшие 24 часа)

TLE

СвежийSource: Space-Track

Эпоха: Sep 14, 2026, 02:19 UTC

1 47448U 21006AM  26257.09686821  .00017737  00000-0  39056-3 0  9999
2 47448  97.2228 306.9640 0005671 193.2931 166.8169 15.43992924313466

Отслеживайте CUBEL в реальном времени с AllMySat

Download on the App Store